Zurück zum Katalog

ARIANE 1 DEB

LostHEO
NORAD 26532·DEBRIS·🇫🇷 France

Gestartet Dec 24, 1979 von Guiana Space Centre

Loading…

Nächste Überflüge (nächste 24 Stunden)

TLE

VeraltetSource: Space-Track

Epoche: Jan 21, 2025, 06:36 UTC

1 26532U 79104N   25021.27536750 -.00001198  00000-0 -33428-1 0  9996
2 26532  15.8870 319.8976 5829719 241.8214 289.5286  3.77551389351305

Verfolge ARIANE 1 DEB in Echtzeit mit AllMySat

Download on the App Store